Showing default

OPS 8480 (TRANSIT 5B-6), 1420

Orbit data source: Space-Track

OPS 8480 (TRANSIT 5B-6), 1420 is a payload satellite owned by USN BuWeps (US) in LEO that was launched on Thu, 24 Jun 1965 UTC via a THOR ABLESTAR launch vehicle from the Air Force Western Test Range (AFWTR). Payload-class satellites include a variety of spacecraft equipped with specific instruments for various scientific and technological missions. These include communications satellites like Starlink; space stations such as the ISS; scientific satellites like the Hubble; Earth observation satellites from companies like Planet Labs, Umbra, and HawkEye 360; GPS; miniature CubeSats for education and research; and military/defense satellites.

Loading next visibility...
Identifier
1420, 1965-048A
Orbit
LEO
Country
Flag of USUS
Related business
Manufacturer
APL
Mission
Spacecraft
Bus & Motor
TRANSIT 5, Unknown motor
Mass
~54 kg wet, ~54 kg dry
Launch date (UTC)
1965-06-24 (60 years ago)
Launch vehicle
THOR ABLESTAR
Launch site
Air Force Western Test Range (AFWTR)
Object type
Payload
Rocket body
Debris
Shape & HBR
Unknown
Radar Cross Section
Large (>1 m²)

Expand to show TLE details & history
Last TLE update: 7 hours ago

TLE from 7 hours ago
0 OPS 8480 (TRANSIT 5B-6)
1 01420U 65048A   25288.95679142  .00000172  00000-0  24263-3 0  9998
2 01420  89.8766 289.2140 0075140  59.8484 328.9620 13.51844396970453
Epoch: 2025-10-15T22:57Z
TLE epoch observation values (Epoch: 2025-10-15T22:57:46.778Z)
Latitude
28.40428°
Longitude
-79.88794°
Altitude
1,021.223 km
Speed
7.367 km/s
True Right ascension
19h 17m 07s
True Declination
28° 15' 57"
Sunlit
Object was in daylight at epoch
Visualization orbit readout
Latitude
Unknown
Longitude
Unknown
Altitude
Unknown
Speed
Unknown
Apparent Right ascension
Unknown
Apparent Declination
Unknown
Sunlit
N/A
Visualization observer readout
Local Sidereal Time
00:40:31
Azimuth
Unknown
Elevation
Unknown
Doppler factor
Unknown
Orbital elements
Apogee altitude
1,118.436 km
Perigee altitude
1,006.618 km
Semi-major axis
7,440.664 km
Eccentricity
0.00751
Inclination
89.8766°
RAAN
289.214°
Arg. of periapsis
59.8484°
True anomaly
328.51445°
Mean anomaly
328.962°
Eccentric anomaly
328.73858°
Mean motion
3.38163 °/min
Orbital period
106.46 mins
BSTAR
0.00024263
Loading maneuver chart data...
Computing Atmospheric mass density...

Documentation

Showing up to 5 results
|